Location: Paderno d�Adda
(45.6667°N, 9.4333°E)
Time: 01:22:39
(UTC+00:00)

Cosmos 2151 Rocket - Pass Details

Date: 19 September 2020
Orbit: 618 x 642 km, 82.5° (Epoch: 26 October)

Event Time Altitude Azimuth Distance (km) Brightness Sun altitude
Rises 19:04:04 0° 187° (S) 2,899 6.9 -17.7°
Reaches altitude 10° 19:06:16 10° 187° (S) 2,001 6.0 -18.1°
Maximum altitude 19:10:43 89° 108° (ESE) 639 3.5 -18.8°
Drops below altitude 10° 19:15:14 10° 9° (N) 2,033 6.4 -19.5°
Sets 19:17:30 0° 10° (N) 2,950 7.2 -19.9°
